contact:dominique.lefevre@mio.osupytheas.fr, maurice.libes@osupytheas.fr, didier.mallarino@osupytheas.fr
Project:EMSO http://www.emso-fr.org/EMSO-France
Depth: 2436.0 m
Title:EMSO Ligure Ouest : Data MII capteur AQUADOPP
Date,Latitude,Longitude,X_East,Y_North,Z_Up,Amplitude_X,Amplitude_Y,Amplitude_Z,Batterie,SoundSpeed,Heading,Pitch,Roll,Pressure,TIS,Speed,Direction
, degrees North, degrees East, m.s-1, m.s-1,m.s-1, 1, 1, 1, Volt, m.s-1, degree, degree, degree, dbar, degree_C, m.s-1, degree
2021-02-18T00:04:03,42.805,6.029,-0.004,-0.008,0.024,103.0,102.0,101.0,13.4,1505.2,326.8,-0.8,1.8,2470.54,13.28,0.008,206.6
2021-02-18T00:07:03,42.805,6.029,-0.015,-0.017,0.009,101.0,101.0,100.0,13.4,1505.2,324.4,-0.7,1.8,2470.54,13.28,0.022,221.4
2021-02-18T00:10:03,42.805,6.029,-0.018,-0.032,0.016,101.0,101.0,100.0,13.4,1505.2,325.3,-0.8,1.8,2470.47,13.28,0.036,209.4
2021-02-18T00:13:03,42.805,6.029,-0.007,-0.046,-0.014,101.0,102.0,101.0,13.4,1505.2,324.0,-0.7,1.8,2470.516,13.28,0.046,188.7
2021-02-18T00:16:03,42.805,6.029,-0.013,-0.02,0.033,101.0,102.0,101.0,13.3,1505.2,324.1,-0.8,1.8,2470.515,13.28,0.023,213.0
2021-02-18T00:19:03,42.805,6.029,0.013,-0.027,0.03,100.0,101.0,101.0,13.4,1505.2,327.0,-0.7,1.8,2470.527,13.28,0.029,154.3
2021-02-18T00:22:03,42.805,6.029,-0.023,-0.022,0.005,100.0,101.0,102.0,13.4,1505.2,322.7,-0.7,1.8,2470.455,13.28,0.031,226.3
2021-02-18T00:25:03,42.805,6.029,0.026,-0.024,0.037,100.0,103.0,104.0,13.3,1505.2,325.9,-0.8,1.8,2470.499,13.28,0.035,132.7
2021-02-18T00:28:03,42.805,6.029,-0.012,-0.004,0.021,102.0,101.0,104.0,13.4,1505.2,325.4,-0.8,1.8,2470.48,13.28,0.012,251.6
2021-02-18T00:31:03,42.805,6.029,-0.007,-0.014,-0.003,101.0,103.0,100.0,13.3,1505.2,326.7,-0.7,1.8,2470.509,13.29,0.015,206.6
2021-02-18T00:34:03,42.805,6.029,-0.011,-0.011,0.009,103.0,101.0,102.0,13.3,1505.2,324.3,-0.7,1.8,2470.51,13.29,0.015,225.0
2021-02-18T00:37:03,42.805,6.029,0.0,-0.021,0.016,102.0,101.0,104.0,13.4,1505.2,326.3,-0.8,1.8,2470.463,13.29,0.021,180.0
2021-02-18T00:40:03,42.805,6.029,-0.001,-0.029,0.01,102.0,102.0,101.0,13.4,1505.2,327.9,-0.8,1.9,2470.514,13.29,0.029,182.0
2021-02-18T00:43:03,42.805,6.029,0.003,-0.024,0.02,101.0,102.0,100.0,13.4,1505.2,324.7,-0.7,1.8,2470.521,13.29,0.024,172.9
2021-02-18T00:46:03,42.805,6.029,-0.011,-0.028,0.027,100.0,102.0,100.0,13.3,1505.2,325.7,-0.7,1.8,2470.51,13.29,0.03,201.4
2021-02-18T00:49:03,42.805,6.029,-0.027,-0.02,0.027,101.0,101.0,101.0,13.3,1505.2,324.4,-0.8,1.9,2470.453,13.29,0.033,233.5
2021-02-18T00:52:03,42.805,6.029,-0.006,-0.038,-0.005,100.0,101.0,100.0,13.4,1505.2,324.6,-0.7,1.8,2470.485,13.29,0.038,189.0
2021-02-18T00:55:03,42.805,6.029,-0.016,-0.006,0.022,102.0,101.0,99.0,13.4,1505.2,324.9,-0.7,1.8,2470.477,13.29,0.017,249.4
2021-02-18T00:58:03,42.805,6.029,0.006,-0.016,0.021,101.0,100.0,101.0,13.3,1505.2,325.6,-0.8,1.8,2470.472,13.28,0.017,159.4
2021-02-18T01:04:03,42.805,6.029,0.005,-0.035,0.019,100.0,102.0,100.0,13.4,1505.2,326.5,-0.7,1.8,2470.527,13.28,0.035,171.9
2021-02-18T01:07:03,42.805,6.029,-0.011,-0.013,0.026,100.0,100.0,101.0,13.3,1505.2,323.3,-0.8,1.8,2470.494,13.28,0.017,220.2
2021-02-18T01:10:03,42.805,6.029,-0.021,-0.013,0.0,102.0,100.0,100.0,13.4,1505.2,327.4,-0.8,1.8,2470.495,13.28,0.024,238.2
2021-02-18T01:13:03,42.805,6.029,0.015,-0.028,0.009,100.0,100.0,101.0,13.4,1505.2,323.0,-0.7,1.8,2470.501,13.28,0.031,151.8
2021-02-18T01:16:03,42.805,6.029,-0.016,-0.027,0.001,101.0,101.0,101.0,13.4,1505.2,326.1,-0.8,1.8,2470.496,13.28,0.031,210.7
2021-02-18T01:19:03,42.805,6.029,-0.041,-0.009,0.017,98.0,102.0,101.0,13.4,1505.2,326.8,-0.7,1.8,2470.495,13.28,0.041,257.6
2021-02-18T01:22:03,42.805,6.029,-0.008,-0.001,0.013,100.0,101.0,100.0,13.4,1505.2,324.8,-0.8,1.8,2470.494,13.28,0.008,262.9
2021-02-18T01:25:03,42.805,6.029,-0.036,-0.026,-0.018,100.0,100.0,101.0,13.3,1505.2,326.3,-0.8,1.8,2470.478,13.29,0.044,234.2
2021-02-18T01:28:03,42.805,6.029,-0.021,-0.025,0.0,100.0,102.0,100.0,13.4,1505.2,325.6,-0.8,1.8,2470.453,13.29,0.032,220.0
2021-02-18T01:31:03,42.805,6.029,-0.019,-0.026,0.0,100.0,101.0,102.0,13.4,1505.2,324.0,-0.8,1.8,2470.487,13.29,0.032,216.2
2021-02-18T01:34:03,42.805,6.029,0.004,-0.024,0.035,100.0,101.0,100.0,13.3,1505.2,324.2,-0.7,1.8,2470.467,13.29,0.024,170.5
2021-02-18T01:37:03,42.805,6.029,0.0,-0.024,0.034,101.0,100.0,100.0,13.4,1505.2,324.2,-0.7,1.8,2470.495,13.29,0.024,180.0
2021-02-18T01:40:03,42.805,6.029,-0.013,-0.023,-0.001,101.0,99.0,100.0,13.4,1505.2,324.4,-0.8,1.8,2470.455,13.29,0.026,209.5
2021-02-18T01:43:03,42.805,6.029,-0.018,-0.018,0.008,101.0,101.0,101.0,13.4,1505.2,324.8,-0.8,1.8,2470.406,13.29,0.025,225.0
2021-02-18T01:46:03,42.805,6.029,-0.022,-0.037,-0.012,100.0,100.0,101.0,13.4,1505.2,324.5,-0.8,1.8,2470.451,13.29,0.043,210.7
2021-02-18T01:49:03,42.805,6.029,0.0,-0.024,0.022,100.0,103.0,103.0,13.4,1505.2,325.4,-0.8,1.8,2470.452,13.29,0.024,180.0
2021-02-18T01:52:03,42.805,6.029,0.007,-0.023,0.005,102.0,102.0,101.0,13.4,1505.2,326.8,-0.7,1.9,2470.479,13.29,0.024,163.1
2021-02-18T01:55:03,42.805,6.029,0.0,-0.004,0.029,101.0,102.0,100.0,13.4,1505.2,325.2,-0.7,1.8,2470.466,13.29,0.004,180.0
2021-02-18T01:58:03,42.805,6.029,-0.008,-0.004,0.026,101.0,99.0,102.0,13.4,1505.2,326.7,-0.7,1.8,2470.431,13.29,0.008,243.4
2021-02-18T02:04:03,42.805,6.029,-0.017,-0.023,0.01,101.0,100.0,99.0,13.4,1505.2,327.0,-0.7,1.8,2470.481,13.29,0.028,216.5
2021-02-18T02:07:03,42.805,6.029,0.004,-0.021,0.005,99.0,101.0,102.0,13.4,1505.2,326.8,-0.8,1.8,2470.493,13.29,0.021,169.2
2021-02-18T02:10:03,42.805,6.029,-0.005,-0.01,0.02,101.0,100.0,101.0,13.4,1505.2,323.3,-0.7,1.8,2470.49,13.29,0.011,206.6
2021-02-18T02:13:03,42.805,6.029,-0.025,-0.024,-0.007,101.0,99.0,100.0,13.3,1505.2,323.2,-0.7,1.8,2470.45,13.29,0.034,226.2
2021-02-18T02:16:03,42.805,6.029,-0.006,-0.016,0.05,100.0,101.0,100.0,13.3,1505.2,327.0,-0.8,1.8,2470.45,13.29,0.017,200.6
2021-02-18T02:19:03,42.805,6.029,-0.004,-0.02,0.019,99.0,101.0,100.0,13.4,1505.2,324.7,-0.7,1.8,2470.486,13.29,0.02,191.3
2021-02-18T02:22:03,42.805,6.029,0.015,-0.023,0.036,100.0,101.0,100.0,13.4,1505.2,325.9,-0.7,1.8,2470.438,13.29,0.027,146.9
2021-02-18T02:25:03,42.805,6.029,-0.031,-0.006,0.001,100.0,102.0,100.0,13.4,1505.2,328.2,-0.7,1.8,2470.476,13.29,0.031,259.0
2021-02-18T02:28:03,42.805,6.029,-0.026,-0.015,-0.021,101.0,100.0,102.0,13.4,1505.2,326.3,-0.8,1.8,2470.409,13.29,0.03,240.0
2021-02-18T02:31:03,42.805,6.029,-0.026,-0.002,0.041,101.0,101.0,100.0,13.4,1505.2,324.2,-0.7,1.8,2470.465,13.29,0.026,265.6
2021-02-18T02:34:03,42.805,6.029,-0.018,-0.013,-0.006,100.0,100.0,101.0,13.3,1505.2,325.2,-0.8,1.8,2470.468,13.29,0.022,234.2
2021-02-18T02:37:03,42.805,6.029,-0.001,-0.042,0.027,101.0,101.0,100.0,13.3,1505.2,325.2,-0.7,1.8,2470.452,13.29,0.042,181.4
2021-02-18T02:40:03,42.805,6.029,0.005,-0.024,0.011,101.0,102.0,100.0,13.4,1505.2,324.0,-0.8,1.9,2470.405,13.29,0.024,168.2
2021-02-18T02:43:03,42.805,6.029,-0.029,-0.008,0.038,100.0,100.0,101.0,13.3,1505.2,328.3,-0.8,1.9,2470.392,13.29,0.03,254.6
2021-02-18T02:46:03,42.805,6.029,-0.006,-0.009,0.019,102.0,101.0,101.0,13.4,1505.2,324.4,-0.7,1.8,2470.398,13.29,0.01,213.7
2021-02-18T02:49:03,42.805,6.029,-0.023,-0.014,0.029,100.0,103.0,101.0,13.4,1505.2,324.0,-0.8,1.8,2470.471,13.29,0.026,238.7
2021-02-18T02:52:03,42.805,6.029,-0.02,-0.012,0.027,101.0,103.0,99.0,13.4,1505.2,324.5,-0.7,1.9,2470.42,13.29,0.023,239.0
2021-02-18T02:55:03,42.805,6.029,0.007,-0.014,0.026,102.0,101.0,101.0,13.4,1505.2,324.7,-0.7,1.8,2470.41,13.29,0.015,153.4
2021-02-18T02:58:03,42.805,6.029,-0.009,-0.002,0.013,100.0,102.0,100.0,13.4,1505.2,326.7,-0.7,1.8,2470.455,13.29,0.009,257.5
2021-02-18T03:04:03,42.805,6.029,-0.023,-0.008,0.045,101.0,101.0,101.0,13.3,1505.2,324.5,-0.8,1.8,2470.44,13.29,0.024,250.8
2021-02-18T03:07:03,42.805,6.029,-0.002,-0.018,0.012,100.0,102.0,101.0,13.4,1505.2,323.8,-0.8,1.8,2470.46,13.29,0.018,186.3
2021-02-18T03:10:03,42.805,6.029,-0.001,-0.017,0.037,101.0,101.0,101.0,13.4,1505.2,325.1,-0.8,1.8,2470.44,13.29,0.017,183.4
2021-02-18T03:13:03,42.805,6.029,-0.003,-0.016,0.01,101.0,103.0,101.0,13.4,1505.2,325.6,-0.8,1.9,2470.456,13.29,0.016,190.6
2021-02-18T03:16:03,42.805,6.029,-0.024,-0.019,0.02,101.0,101.0,101.0,13.4,1505.2,325.5,-0.8,1.9,2470.47,13.29,0.03,231.6
2021-02-18T03:19:03,42.805,6.029,-0.002,-0.018,0.027,101.0,101.0,101.0,13.4,1505.2,325.7,-0.7,1.8,2470.429,13.29,0.018,186.3
2021-02-18T03:22:03,42.805,6.029,0.001,0.001,0.029,100.0,102.0,101.0,13.4,1505.2,324.5,-0.7,1.8,2470.435,13.29,0.001,45.0
2021-02-18T03:25:03,42.805,6.029,0.006,-0.004,0.008,101.0,102.0,101.0,13.4,1505.2,324.7,-0.8,1.8,2470.427,13.29,0.007,123.7
2021-02-18T03:28:03,42.805,6.029,-0.001,-0.009,0.037,103.0,102.0,101.0,13.4,1505.2,325.1,-0.7,1.8,2470.452,13.29,0.009,186.3
2021-02-18T03:31:03,42.805,6.029,-0.014,-0.01,0.014,102.0,103.0,100.0,13.3,1505.2,325.2,-0.8,1.8,2470.46,13.29,0.017,234.5
2021-02-18T03:34:03,42.805,6.029,0.008,-0.021,0.036,102.0,101.0,102.0,13.4,1505.2,324.2,-0.7,1.8,2470.417,13.29,0.022,159.1
2021-02-18T03:37:03,42.805,6.029,-0.012,-0.012,0.002,103.0,102.0,102.0,13.4,1505.2,325.6,-0.8,1.8,2470.426,13.29,0.016,225.0
2021-02-18T03:40:03,42.805,6.029,0.006,-0.011,0.027,100.0,102.0,102.0,13.4,1505.2,327.2,-0.7,1.8,2470.452,13.29,0.012,151.4
2021-02-18T03:43:03,42.805,6.029,-0.016,-0.008,0.025,101.0,101.0,101.0,13.3,1505.2,325.6,-0.7,1.8,2470.407,13.29,0.017,243.4
2021-02-18T03:46:03,42.805,6.029,-0.005,-0.028,0.023,102.0,101.0,101.0,13.4,1505.2,327.0,-0.7,1.8,2470.416,13.29,0.028,190.1
2021-02-18T03:49:03,42.805,6.029,-0.008,-0.018,0.013,101.0,104.0,100.0,13.3,1505.2,326.2,-0.8,1.8,2470.437,13.29,0.019,204.0
2021-02-18T03:52:03,42.805,6.029,-0.013,-0.019,0.014,103.0,101.0,100.0,13.4,1505.2,324.4,-0.7,1.8,2470.415,13.29,0.023,214.4
2021-02-18T03:55:03,42.805,6.029,0.0,-0.007,0.017,102.0,102.0,101.0,13.4,1505.2,325.3,-0.8,1.8,2470.432,13.29,0.007,180.0
2021-02-18T03:58:03,42.805,6.029,-0.008,-0.01,0.019,104.0,102.0,101.0,13.4,1505.2,327.3,-0.7,1.8,2470.391,13.29,0.012,218.7
2021-02-18T04:04:03,42.805,6.029,-0.011,-0.026,0.013,102.0,102.0,100.0,13.4,1505.2,324.9,-0.7,1.8,2470.46,13.29,0.028,202.9
2021-02-18T04:07:03,42.805,6.029,-0.005,-0.024,0.0,101.0,101.0,101.0,13.3,1505.2,327.6,-0.7,1.8,2470.46,13.29,0.024,191.8
2021-02-18T04:10:03,42.805,6.029,0.01,-0.01,0.026,101.0,102.0,101.0,13.4,1505.2,327.9,-0.8,1.8,2470.443,13.29,0.014,135.0
2021-02-18T04:13:03,42.805,6.029,-0.001,-0.009,0.027,101.0,100.0,102.0,13.4,1505.2,328.3,-0.7,1.8,2470.454,13.29,0.009,186.3
2021-02-18T04:16:03,42.805,6.029,-0.001,-0.017,0.025,104.0,102.0,101.0,13.4,1505.2,326.0,-0.8,1.9,2470.464,13.29,0.017,183.4
2021-02-18T04:19:03,42.805,6.029,-0.006,-0.005,0.017,102.0,101.0,103.0,13.3,1505.2,324.8,-0.8,1.8,2470.413,13.29,0.007,230.2
2021-02-18T04:22:03,42.805,6.029,-0.005,-0.008,0.052,101.0,102.0,101.0,13.4,1505.2,325.9,-0.8,1.8,2470.443,13.29,0.009,212.0
2021-02-18T04:25:03,42.805,6.029,-0.009,-0.025,-0.001,101.0,103.0,102.0,13.4,1505.2,323.2,-0.7,1.8,2470.453,13.29,0.026,199.8
2021-02-18T04:28:03,42.805,6.029,-0.004,-0.013,0.049,102.0,103.0,101.0,13.4,1505.2,326.5,-0.7,1.8,2470.429,13.29,0.013,197.1
2021-02-18T04:31:03,42.805,6.029,-0.011,-0.022,0.03,102.0,100.0,101.0,13.3,1505.2,326.6,-0.8,1.8,2470.41,13.29,0.024,206.6
2021-02-18T04:34:03,42.805,6.029,-0.007,-0.026,0.029,102.0,100.0,102.0,13.4,1505.2,327.6,-0.8,1.8,2470.419,13.29,0.026,195.1
2021-02-18T04:37:03,42.805,6.029,-0.009,-0.011,-0.007,103.0,101.0,100.0,13.4,1505.2,327.9,-0.7,1.8,2470.414,13.29,0.014,219.3
2021-02-18T04:40:03,42.805,6.029,-0.003,-0.002,0.032,102.0,101.0,101.0,13.4,1505.2,328.1,-0.7,1.8,2470.417,13.29,0.003,236.3
2021-02-18T04:43:03,42.805,6.029,0.0,-0.038,0.014,101.0,103.0,99.0,13.4,1505.2,325.3,-0.7,1.8,2470.442,13.29,0.038,180.0
2021-02-18T04:46:03,42.805,6.029,-0.003,-0.013,0.016,102.0,102.0,101.0,13.3,1505.2,324.8,-0.7,1.8,2470.44,13.29,0.013,193.0
2021-02-18T04:49:03,42.805,6.029,0.008,-0.031,-0.01,103.0,101.0,101.0,13.3,1505.2,324.0,-0.7,1.8,2470.418,13.29,0.032,165.5
2021-02-18T04:52:03,42.805,6.029,-0.007,-0.01,0.002,103.0,101.0,101.0,13.4,1505.2,326.1,-0.7,1.8,2470.389,13.28,0.012,215.0
2021-02-18T04:55:03,42.805,6.029,-0.02,-0.007,0.016,103.0,101.0,101.0,13.3,1505.2,324.6,-0.7,1.8,2470.391,13.28,0.021,250.7
2021-02-18T04:58:03,42.805,6.029,-0.019,0.006,0.011,104.0,102.0,101.0,13.4,1505.2,325.7,-0.7,1.8,2470.436,13.28,0.019,287.5
2021-02-18T05:04:03,42.805,6.029,0.003,-0.006,0.047,102.0,102.0,102.0,13.4,1505.2,325.9,-0.8,1.8,2470.466,13.28,0.006,153.4
2021-02-18T05:07:03,42.805,6.029,0.004,-0.023,0.017,103.0,102.0,103.0,13.4,1505.2,326.3,-0.8,1.9,2470.456,13.28,0.023,170.1
2021-02-18T05:10:03,42.805,6.029,0.001,-0.013,0.009,103.0,103.0,102.0,13.3,1505.2,324.5,-0.8,1.8,2470.479,13.28,0.013,175.6
2021-02-18T05:13:03,42.805,6.029,0.0,-0.013,0.019,104.0,102.0,102.0,13.3,1505.2,326.3,-0.7,1.8,2470.428,13.28,0.013,180.0
2021-02-18T05:16:03,42.805,6.029,0.017,0.0,0.014,102.0,104.0,101.0,13.4,1505.2,325.0,-0.8,1.8,2470.427,13.28,0.017,90.0
2021-02-18T05:19:03,42.805,6.029,-0.001,-0.012,-0.008,103.0,103.0,102.0,13.3,1505.2,325.7,-0.8,1.8,2470.421,13.28,0.012,184.8
2021-02-18T05:22:03,42.805,6.029,0.02,-0.021,0.028,103.0,102.0,100.0,13.4,1505.2,324.4,-0.7,1.8,2470.433,13.28,0.028,136.4
2021-02-18T05:25:03,42.805,6.029,0.006,-0.014,0.012,101.0,102.0,101.0,13.4,1505.2,328.4,-0.8,1.8,2470.433,13.28,0.015,156.8
2021-02-18T05:28:03,42.805,6.029,0.001,-0.03,0.0,102.0,102.0,102.0,13.4,1505.2,326.1,-0.7,1.8,2470.424,13.28,0.03,178.1
2021-02-18T05:31:03,42.805,6.029,-0.01,-0.021,-0.014,101.0,103.0,102.0,13.3,1505.2,324.0,-0.7,1.8,2470.452,13.28,0.023,205.5
2021-02-18T05:34:03,42.805,6.029,-0.008,-0.017,0.013,102.0,102.0,101.0,13.3,1505.2,322.7,-0.8,1.8,2470.428,13.28,0.018,205.2
2021-02-18T05:37:03,42.805,6.029,-0.017,-0.022,-0.006,102.0,102.0,101.0,13.4,1505.2,326.3,-0.8,1.8,2470.446,13.28,0.027,217.7
2021-02-18T05:40:03,42.805,6.029,0.01,-0.021,0.019,102.0,102.0,101.0,13.3,1505.2,325.8,-0.8,1.8,2470.418,13.28,0.023,154.5
2021-02-18T05:43:03,42.805,6.029,-0.013,-0.017,0.031,101.0,103.0,101.0,13.3,1505.2,326.2,-0.7,1.8,2470.424,13.28,0.021,217.4
2021-02-18T05:46:03,42.805,6.029,0.01,-0.008,0.005,103.0,100.0,101.0,13.3,1505.2,326.1,-0.7,1.8,2470.396,13.28,0.012,128.7
2021-02-18T05:49:03,42.805,6.029,-0.018,-0.002,0.042,103.0,102.0,101.0,13.3,1505.2,326.1,-0.8,1.8,2470.392,13.28,0.018,263.7
2021-02-18T05:52:03,42.805,6.029,-0.009,-0.002,0.015,103.0,103.0,101.0,13.4,1505.2,326.4,-0.7,1.8,2470.456,13.28,0.009,257.5
2021-02-18T05:55:03,42.805,6.029,0.02,-0.023,0.015,102.0,103.0,102.0,13.3,1505.2,325.5,-0.8,1.8,2470.398,13.28,0.03,139.0
2021-02-18T05:58:03,42.805,6.029,0.01,-0.015,0.009,101.0,103.0,102.0,13.3,1505.2,326.1,-0.8,1.8,2470.422,13.28,0.018,146.3
2021-02-18T06:04:03,42.805,6.029,0.013,-0.019,0.013,101.0,102.0,101.0,13.4,1505.2,327.1,-0.7,1.8,2470.463,13.28,0.023,145.6
2021-02-18T06:07:03,42.805,6.029,0.004,-0.001,0.054,102.0,102.0,101.0,13.4,1505.2,323.1,-0.8,1.9,2470.453,13.28,0.004,104.0
2021-02-18T06:10:03,42.805,6.029,-0.002,-0.017,-0.003,102.0,103.0,102.0,13.4,1505.2,325.4,-0.7,1.8,2470.423,13.28,0.017,186.7
2021-02-18T06:13:03,42.805,6.029,0.003,-0.023,0.008,103.0,102.0,102.0,13.4,1505.2,326.7,-0.7,1.8,2470.411,13.28,0.023,172.6
2021-02-18T06:16:03,42.805,6.029,-0.009,-0.021,0.009,103.0,103.0,101.0,13.3,1505.2,327.2,-0.8,1.8,2470.426,13.28,0.022,203.2
2021-02-18T06:19:03,42.805,6.029,0.013,-0.017,0.01,103.0,102.0,101.0,13.4,1505.2,328.0,-0.8,1.9,2470.385,13.28,0.021,142.6
2021-02-18T06:22:03,42.805,6.029,-0.008,-0.021,0.009,102.0,102.0,100.0,13.4,1505.2,325.2,-0.7,1.8,2470.426,13.28,0.022,200.9
2021-02-18T06:25:03,42.805,6.029,0.004,-0.018,0.026,103.0,102.0,101.0,13.4,1505.2,328.1,-0.7,1.8,2470.394,13.28,0.018,167.5
2021-02-18T06:28:03,42.805,6.029,-0.007,-0.017,0.001,102.0,103.0,101.0,13.3,1505.2,328.5,-0.7,1.8,2470.411,13.28,0.018,202.4
2021-02-18T06:31:03,42.805,6.029,-0.015,-0.016,0.02,102.0,103.0,102.0,13.4,1505.2,324.1,-0.7,1.8,2470.424,13.28,0.021,223.1
2021-02-18T06:34:03,42.805,6.029,0.013,-0.024,0.015,102.0,103.0,101.0,13.4,1505.2,326.9,-0.8,1.8,2470.417,13.28,0.027,151.6
2021-02-18T06:37:03,42.805,6.029,0.013,-0.027,0.019,102.0,102.0,101.0,13.4,1505.2,324.1,-0.8,1.9,2470.458,13.28,0.029,154.3
2021-02-18T06:40:03,42.805,6.029,0.009,-0.015,0.002,102.0,102.0,101.0,13.3,1505.2,322.7,-0.8,1.8,2470.422,13.28,0.017,149.0
2021-02-18T06:43:03,42.805,6.029,0.002,-0.024,0.007,102.0,102.0,101.0,13.4,1505.2,324.3,-0.8,1.8,2470.409,13.28,0.024,175.2
2021-02-18T06:46:03,42.805,6.029,-0.018,0.006,0.03,102.0,102.0,101.0,13.4,1505.2,325.0,-0.8,1.8,2470.439,13.28,0.018,288.4
2021-02-18T06:49:03,42.805,6.029,0.0,-0.025,0.008,103.0,103.0,101.0,13.4,1505.2,324.3,-0.8,1.8,2470.404,13.28,0.025,180.0
2021-02-18T06:52:03,42.805,6.029,0.018,-0.021,0.045,103.0,102.0,102.0,13.3,1505.2,327.9,-0.8,1.8,2470.45,13.28,0.027,139.4
2021-02-18T06:55:03,42.805,6.029,0.001,-0.012,0.007,103.0,102.0,101.0,13.4,1505.2,328.3,-0.7,1.8,2470.405,13.28,0.012,175.2
2021-02-18T06:58:03,42.805,6.029,0.012,-0.024,0.038,102.0,102.0,101.0,13.4,1505.2,327.7,-0.7,1.8,2470.381,13.28,0.026,153.4
2021-02-18T07:04:03,42.805,6.029,0.005,-0.029,0.009,101.0,102.0,101.0,13.4,1505.2,325.0,-0.8,1.8,2470.455,13.28,0.029,170.2
2021-02-18T07:07:03,42.805,6.029,0.006,-0.033,0.039,102.0,102.0,101.0,13.4,1505.2,326.8,-0.7,1.8,2470.427,13.28,0.033,169.7
2021-02-18T07:10:03,42.805,6.029,-0.026,-0.009,0.034,103.0,102.0,100.0,13.3,1505.2,323.6,-0.7,1.8,2470.479,13.28,0.027,250.9
2021-02-18T07:13:03,42.805,6.029,-0.001,0.0,0.021,102.0,103.0,102.0,13.4,1505.2,325.9,-0.7,1.8,2470.48,13.28,0.001,270.0
2021-02-18T07:16:03,42.805,6.029,0.001,-0.012,0.011,103.0,101.0,102.0,13.4,1505.2,323.4,-0.8,1.8,2470.439,13.28,0.012,175.2
2021-02-18T07:19:03,42.805,6.029,-0.024,-0.011,-0.003,102.0,102.0,102.0,13.3,1505.2,324.2,-0.7,1.8,2470.46,13.28,0.026,245.4
2021-02-18T07:22:03,42.805,6.029,0.004,-0.024,0.0,101.0,103.0,103.0,13.4,1505.2,327.2,-0.8,1.8,2470.483,13.28,0.024,170.5
2021-02-18T07:25:03,42.805,6.029,-0.006,-0.024,0.017,103.0,103.0,102.0,13.4,1505.2,325.6,-0.7,1.8,2470.441,13.28,0.024,194.0
2021-02-18T07:28:03,42.805,6.029,-0.015,-0.026,0.027,103.0,103.0,102.0,13.4,1505.2,323.5,-0.8,1.8,2470.47,13.28,0.03,210.0
2021-02-18T07:31:03,42.805,6.029,0.004,-0.02,0.02,102.0,103.0,101.0,13.4,1505.2,323.3,-0.8,1.8,2470.431,13.28,0.02,168.7
2021-02-18T07:34:03,42.805,6.029,0.003,-0.015,0.0,102.0,104.0,102.0,13.4,1505.2,323.2,-0.7,1.9,2470.467,13.28,0.015,168.7
2021-02-18T07:37:03,42.805,6.029,0.0,-0.026,0.029,103.0,102.0,101.0,13.4,1505.2,326.3,-0.7,1.8,2470.462,13.28,0.026,180.0
2021-02-18T07:40:03,42.805,6.029,0.005,-0.017,0.024,101.0,102.0,102.0,13.4,1505.2,326.0,-0.8,1.8,2470.461,13.28,0.017,163.6
2021-02-18T07:43:03,42.805,6.029,-0.009,-0.015,-0.007,103.0,103.0,102.0,13.4,1505.2,328.6,-0.8,1.8,2470.431,13.28,0.017,211.0
2021-02-18T07:46:03,42.805,6.029,-0.007,-0.02,0.015,103.0,102.0,101.0,13.4,1505.2,327.0,-0.8,1.9,2470.443,13.28,0.021,199.3
2021-02-18T07:49:03,42.805,6.029,-0.003,-0.033,0.007,103.0,103.0,101.0,13.3,1505.2,322.9,-0.8,1.8,2470.435,13.28,0.033,185.2
2021-02-18T07:52:03,42.805,6.029,0.011,-0.013,0.051,103.0,104.0,100.0,13.4,1505.2,325.8,-0.7,1.8,2470.432,13.28,0.017,139.8
2021-02-18T07:55:03,42.805,6.029,0.001,-0.022,0.015,102.0,102.0,101.0,13.4,1505.2,325.4,-0.8,1.8,2470.474,13.28,0.022,177.4
2021-02-18T07:58:03,42.805,6.029,0.009,-0.019,0.012,102.0,103.0,103.0,13.4,1505.2,324.8,-0.8,1.8,2470.468,13.28,0.021,154.7
2021-02-18T08:04:03,42.805,6.029,-0.004,-0.003,0.015,104.0,102.0,101.0,13.4,1505.2,326.0,-0.8,1.8,2470.521,13.28,0.005,233.1
2021-02-18T08:07:03,42.805,6.029,-0.018,-0.026,-0.015,103.0,103.0,102.0,13.4,1505.2,325.5,-0.8,1.8,2470.498,13.28,0.031,214.7
2021-02-18T08:10:03,42.805,6.029,-0.009,0.0,0.018,104.0,103.0,102.0,13.3,1505.2,326.7,-0.8,1.8,2470.521,13.28,0.009,270.0
2021-02-18T08:13:03,42.805,6.029,0.001,-0.013,0.044,103.0,102.0,101.0,13.4,1505.2,323.2,-0.8,1.8,2470.539,13.28,0.013,175.6
2021-02-18T08:16:03,42.805,6.029,-0.007,-0.018,0.005,103.0,102.0,101.0,13.3,1505.2,324.8,-0.8,1.8,2470.497,13.28,0.019,201.2
2021-02-18T08:19:03,42.805,6.029,0.007,-0.033,0.011,102.0,102.0,102.0,13.3,1505.2,324.6,-0.8,1.9,2470.459,13.28,0.033,168.0
2021-02-18T08:22:03,42.805,6.029,0.004,-0.017,0.045,103.0,104.0,101.0,13.4,1505.2,326.2,-0.8,1.8,2470.532,13.28,0.017,166.8
2021-02-18T08:25:03,42.805,6.029,0.006,-0.016,0.022,103.0,103.0,101.0,13.4,1505.2,323.4,-0.8,1.9,2470.493,13.28,0.017,159.4
2021-02-18T08:28:03,42.805,6.029,-0.012,-0.01,0.038,104.0,102.0,100.0,13.3,1505.2,326.0,-0.8,1.8,2470.518,13.28,0.015,230.2
2021-02-18T08:31:03,42.805,6.029,-0.005,-0.025,0.03,102.0,102.0,102.0,13.3,1505.2,324.3,-0.7,1.8,2470.52,13.28,0.025,191.3
2021-02-18T08:34:03,42.805,6.029,-0.017,-0.018,0.018,102.0,102.0,101.0,13.4,1505.2,325.5,-0.7,1.8,2470.482,13.28,0.024,223.4
2021-02-18T08:37:03,42.805,6.029,0.013,-0.017,0.037,103.0,102.0,100.0,13.3,1505.2,327.2,-0.8,1.8,2470.498,13.28,0.021,142.6
2021-02-18T08:40:03,42.805,6.029,0.013,-0.023,0.038,103.0,103.0,101.0,13.4,1505.2,325.9,-0.8,1.8,2470.508,13.28,0.026,150.5
2021-02-18T08:43:03,42.805,6.029,-0.006,-0.021,0.001,102.0,104.0,101.0,13.3,1505.2,323.6,-0.8,1.8,2470.482,13.28,0.021,195.9
2021-02-18T08:46:03,42.805,6.029,-0.008,-0.024,0.001,102.0,101.0,101.0,13.4,1505.2,325.9,-0.7,1.8,2470.517,13.28,0.025,198.4
2021-02-18T08:49:03,42.805,6.029,0.002,-0.021,-0.004,102.0,103.0,101.0,13.3,1505.2,325.1,-0.7,1.8,2470.532,13.28,0.021,174.6
2021-02-18T08:52:03,42.805,6.029,0.003,-0.027,0.005,103.0,103.0,101.0,13.3,1505.2,324.8,-0.7,1.8,2470.474,13.28,0.027,173.7
2021-02-18T08:55:03,42.805,6.029,0.015,-0.012,-0.017,103.0,102.0,101.0,13.3,1505.2,325.8,-0.8,1.9,2470.501,13.28,0.019,128.7
2021-02-18T08:58:03,42.805,6.029,0.003,-0.022,0.009,102.0,102.0,101.0,13.3,1505.2,326.1,-0.8,1.8,2470.536,13.28,0.022,172.2
2021-02-18T09:04:03,42.805,6.029,-0.005,-0.007,0.011,103.0,103.0,101.0,13.4,1505.2,326.5,-0.8,1.8,2470.569,13.28,0.008,215.5
2021-02-18T09:07:03,42.805,6.029,-0.003,-0.008,0.005,102.0,103.0,102.0,13.3,1505.2,326.5,-0.7,1.9,2470.56,13.28,0.008,200.6
2021-02-18T09:10:03,42.805,6.029,-0.003,-0.028,0.021,103.0,102.0,101.0,13.4,1505.2,326.6,-0.8,1.8,2470.536,13.28,0.028,186.1
2021-02-18T09:13:03,42.805,6.029,0.004,-0.027,0.022,102.0,103.0,101.0,13.4,1505.2,324.1,-0.7,1.8,2470.563,13.28,0.027,171.6
2021-02-18T09:16:03,42.805,6.029,0.012,-0.025,0.011,103.0,102.0,101.0,13.4,1505.2,327.7,-0.8,1.8,2470.505,13.28,0.027,154.4
2021-02-18T09:19:03,42.805,6.029,0.013,-0.03,0.017,102.0,103.0,100.0,13.3,1505.2,326.7,-0.7,1.8,2470.535,13.28,0.032,156.6
2021-02-18T09:22:03,42.805,6.029,0.019,-0.005,0.022,102.0,101.0,101.0,13.4,1505.2,324.1,-0.8,1.8,2470.526,13.28,0.019,104.7
2021-02-18T09:25:03,42.805,6.029,0.013,-0.043,0.024,102.0,102.0,102.0,13.4,1505.2,328.2,-0.8,1.8,2470.493,13.28,0.044,163.2
2021-02-18T09:28:03,42.805,6.029,0.01,-0.02,0.045,101.0,104.0,101.0,13.4,1505.2,326.1,-0.8,1.8,2470.523,13.28,0.022,153.4
2021-02-18T09:31:03,42.805,6.029,0.012,-0.024,0.004,103.0,101.0,100.0,13.4,1505.2,324.5,-0.8,1.8,2470.57,13.28,0.026,153.4
2021-02-18T09:34:03,42.805,6.029,0.002,-0.018,0.011,103.0,102.0,101.0,13.4,1505.2,324.0,-0.8,1.8,2470.513,13.28,0.018,173.7
2021-02-18T09:37:03,42.805,6.029,0.0,-0.014,0.02,104.0,102.0,100.0,13.3,1505.2,326.9,-0.8,1.8,2470.525,13.28,0.014,180.0
2021-02-18T09:40:03,42.805,6.029,0.013,-0.022,0.021,102.0,102.0,101.0,13.4,1505.2,324.2,-0.8,1.8,2470.514,13.28,0.025,149.4
2021-02-18T09:43:03,42.805,6.029,-0.01,-0.003,0.015,103.0,101.0,101.0,13.4,1505.2,327.5,-0.8,1.9,2470.522,13.28,0.01,253.3
2021-02-18T09:46:03,42.805,6.029,-0.005,-0.008,0.04,102.0,103.0,101.0,13.4,1505.2,326.9,-0.8,1.8,2470.52,13.28,0.009,212.0
2021-02-18T09:49:03,42.805,6.029,0.004,-0.015,0.008,102.0,103.0,102.0,13.4,1505.2,325.5,-0.8,1.8,2470.524,13.28,0.015,165.1
2021-02-18T09:52:03,42.805,6.029,0.014,-0.01,0.024,102.0,102.0,101.0,13.4,1505.2,326.5,-0.8,1.8,2470.501,13.28,0.017,125.5
2021-02-18T09:55:03,42.805,6.029,0.0,-0.014,0.018,101.0,102.0,102.0,13.4,1505.2,326.7,-0.8,1.8,2470.524,13.28,0.014,180.0